St. Thomas, VI

12:24 PM AST on October 20, 2017 (GMT -0400)
King

Weather History for TIST - February, 2014

Change the Weather History Date:

Friday, February 14, 2014

  Actual Average Record
Temperature  
Mean Temperature 80 °F 79 °F  
Max Temperature 84 °F 85 °F 91 °F (1996)
Min Temperature 76 °F 73 °F 65 °F (1978)
Degree Days  
Heating Degree Days 0 0  
Month to date heating degree days 0 0  
Since 1 July heating degree days 0 0  
Cooling Degree Days 15 14  
Month to date cooling degree days 200 196  
Year to date cooling degree days 621 624  
Growing Degree Days 30 (Base 50)    
Moisture  
Dew Point 71 °F    
Average Humidity 74    
Maximum Humidity 82    
Minimum Humidity 65    
Precipitation  
Precipitation 0.00 in 0.05 in 8.73 in (2015)
Month to date precipitation 0.92 0.75  
Year to date precipitation 1.94 3.13  
Sea Level Pressure  
Sea Level Pressure 30.04 in    
Wind  
Wind Speed 12 mph (ESE)    
Max Wind Speed 18 mph    
Max Gust Speed 24 mph    
Visibility 10 miles    
Events      
T = Trace of Precipitation, MM = Missing Value Source: NWS Daily Summary

Daily Weather History Graph

Daily Weather History Graph

Search for Another Location

Airport or City:

Trip Planner

Search our weather history database for the weather conditions in past years. The results will help you decide how hot, cold, wet, or windy it might be!

Date:

Astronomy

Feb. 14, 2014 Rise Set
Actual Time 6:47 AM AST 6:20 PM AST
Civil Twilight 6:25 AM AST 6:42 PM AST
Nautical Twilight 5:59 AM AST 7:08 PM AST
Astronomical Twilight 5:34 AM AST 7:34 PM AST
Moon 6:13 PM AST (2/14) 6:16 AM AST (2/14)
Length of Visible Light 12h 17m
Length of Day
11h 32m
Full, 100% of the Moon is Illuminated
Feb 14
Full
Feb 14
Full
Feb 22
Last Quarter
Mar 1
New
Mar 8
First Quarter

Hourly Weather History & Observations

Time (AST) Temp. Heat Index Dew Point Humidity Pressure Visibility Wind Dir Wind Speed Gust Speed Precip Events Conditions
12:53 AM 78.1 °F - 70.0 °F 76% 30.02 in 10.0 mi SE 12.7 mph - N/A   Partly Cloudy
1:53 AM 78.1 °F - 71.1 °F 79% 29.99 in 10.0 mi SE 13.8 mph - N/A   Partly Cloudy
2:53 AM 77.0 °F - 71.1 °F 82% 29.98 in 10.0 mi ESE 9.2 mph - N/A   Clear
3:53 AM 78.1 °F - 71.1 °F 79% 29.98 in 10.0 mi SE 11.5 mph - N/A   Mostly Cloudy
4:15 AM 78.8 °F - 71.6 °F 78% 29.98 in 10.0 mi ESE 9.2 mph - N/A   Mostly Cloudy
4:39 AM 78.8 °F - 71.6 °F 78% 29.98 in 10.0 mi SE 13.8 mph - N/A   Scattered Clouds
4:53 AM 78.1 °F - 72.0 °F 81% 29.98 in 10.0 mi ESE 10.4 mph - N/A   Scattered Clouds
5:24 AM 78.8 °F - 71.6 °F 78% 29.98 in 10.0 mi ESE 9.2 mph - N/A   Mostly Cloudy
5:43 AM 78.8 °F - 71.6 °F 78% 29.99 in 10.0 mi SE 13.8 mph - N/A   Mostly Cloudy
5:53 AM 78.1 °F - 71.1 °F 79% 29.99 in 10.0 mi ESE 12.7 mph - N/A   Scattered Clouds
7:53 AM 79.0 °F - 71.1 °F 77% 30.04 in 10.0 mi SE 13.8 mph - N/A   Scattered Clouds
8:03 AM 78.8 °F - 71.6 °F 78% 30.04 in 10.0 mi SE 17.3 mph - N/A   Mostly Cloudy
8:34 AM 80.6 °F 84.6 °F 71.6 °F 74% 30.05 in 10.0 mi ESE 17.3 mph - N/A   Mostly Cloudy
9:53 AM 81.0 °F 84.9 °F 71.1 °F 72% 30.09 in 10.0 mi ESE 16.1 mph - N/A   Partly Cloudy
10:53 AM 82.0 °F 86.7 °F 72.0 °F 71% 30.10 in 10.0 mi SE 12.7 mph 20.7 mph N/A   Mostly Cloudy
11:02 AM 82.4 °F 87.2 °F 71.6 °F 70% 30.10 in 10.0 mi SE 13.8 mph 20.7 mph N/A   Scattered Clouds
11:53 AM 82.9 °F 87.5 °F 71.1 °F 67% 30.08 in 10.0 mi SE 13.8 mph - N/A   Partly Cloudy
12:53 PM 84.0 °F 89.6 °F 72.0 °F 67% 30.06 in 10.0 mi SE 12.7 mph - N/A   Scattered Clouds
1:53 PM 84.0 °F 89.0 °F 71.1 °F 65% 30.04 in 10.0 mi SE 16.1 mph 21.9 mph N/A   Partly Cloudy
2:53 PM 82.0 °F 86.3 °F 71.1 °F 69% 30.02 in 10.0 mi SSE 11.5 mph - N/A   Clear
4:53 PM 82.0 °F 86.3 °F 71.1 °F 69% 30.02 in 10.0 mi SE 13.8 mph - N/A   Clear
5:53 PM 80.1 °F 83.6 °F 71.1 °F 74% 30.03 in 10.0 mi SE 10.4 mph - N/A   Clear
6:53 PM 79.0 °F - 71.1 °F 77% 30.04 in 10.0 mi East 11.5 mph - N/A   Clear
7:22 PM 78.8 °F - 71.6 °F 78% 30.05 in 10.0 mi East 11.5 mph - N/A   Mostly Cloudy
7:35 PM 78.8 °F - 71.6 °F 78% 30.05 in 10.0 mi ESE 9.2 mph - N/A   Scattered Clouds
7:45 PM 78.8 °F - 71.6 °F 78% 30.05 in 10.0 mi East 11.5 mph - N/A   Mostly Cloudy
7:53 PM 79.0 °F - 71.1 °F 77% 30.06 in 10.0 mi East 11.5 mph - N/A   Scattered Clouds
8:53 PM 78.1 °F - 71.1 °F 79% 30.08 in 10.0 mi East 8.1 mph - N/A   Partly Cloudy
9:53 PM 78.1 °F - 70.0 °F 76% 30.09 in 10.0 mi East 8.1 mph - N/A   Mostly Cloudy
10:53 PM 77.0 °F - 70.0 °F 79% 30.10 in 10.0 mi East 5.8 mph - N/A   Clear
11:53 PM 78.1 °F - 71.1 °F 79% 30.09 in 10.0 mi ESE 10.4 mph - N/A   Mostly Cloudy